Tracking 30400 objects as of 13-May-2025
HD Live streaming from Space Station
objects crossing your sky now

ARIANE 5 DEB (SYLDA)

Track ARIANE 5 DEB (SYLDA) now!
10-day predictions


NORAD ID: 44478
Int'l Code: 2019-049D
Perigee: 236.0 km
Apogee: 8,091.9 km
Inclination: 4.3 °
Period: 179.4 minutes
Semi major axis: 10534 km
RCS: Unknown
Launch date: August 6, 2019
Source: France (FR)
Launch site: FRENCH GUIANA (FRGUI)

Note: This is SATELLITE DEBRIS
Your satellite tracking list
Your tracking list is empty




NASA's NSSDC Master Catalog

Two Line Element Set (TLE):
1 44478U 19049D   25132.34878615  .00339461  00000-0  73908-2 0  9990
2 44478   4.3270 264.2430 3728497 148.5118 240.4742  8.02883508 87408
Source of the keplerian elements: AFSPC